Regional Weather Roundup
Issued by NWS

Home | Current Version | Previous Version | Text Only | Print | Product List | Glossary On
Versions: 1 2 3 4 5 6 7 8 9 10 11 12 13 14 15 16 17 18 19 20 21 22 23 24 25 26 27 28 29 30 31 32 33 34 35 36 37 38 39 40 41 42 43 44 45 46 47 48 49 50
000
ASUS43 KTOP 211459
RWRKS

WEATHER ROUNDUP FOR KANSAS
NATIONAL WEATHER SERVICE GOODLAND KS
900 AM CST SUN JAN 21 2018

NOTE:  "FAIR" INDICATES FEW OR NO CLOUDS BELOW 12,000 FEET WITH NO
SIGNIFICANT WEATHER AND/OR OBSTRUCTIONS TO VISIBILITY.

KSZ001>006-013>018-027>032-041>047-211600-
NORTHWEST KANSAS

CITY           SKY/WX    TMP DP  RH WIND       PRES   REMARKS
GOODLAND       CLOUDY    29  28  96 N14       29.73F FOG     WCI  18
HAYS           FOG       37  36  96 N14       29.69  VSB 1/2 WCI  28
HILL CITY      CLOUDY    34  34 100 N14G25    29.73S FOG     WCI  25
RUSSELL        FOG       39  39 100 N6        29.70R VSB<1/4
$$

KSZ061>065-074>080-084>089-211600-
SOUTHWEST KANSAS

CITY           SKY/WX    TMP DP  RH WIND       PRES   REMARKS
DODGE CITY     FOG       34  33  96 N8        29.71R VSB 3/4
GARDEN CITY    FOG       32  32 100 NW12      29.73R VSB 1/2 WCI  23
GREAT BEND     LGT RAIN  35  35 100 N6        29.69F VSB 1/2
LIBERAL        CLOUDY    34  31  88 NW13      29.75R WCI  25
$$

KSZ066>073-081>083-090>101-211600-
SOUTHEAST KANSAS

CITY           SKY/WX    TMP DP  RH WIND       PRES   REMARKS
CHANUTE        PTSUNNY   57  53  86 S23G29    29.77F
COFFEYVILLE    MOSUNNY   59  53  80 S18       29.79S
HUTCHINSON     MOSUNNY   38  38 100 CALM      29.69S
MEDICINE LODGE   N/A     38  27  64 NW8       29.72R
NEWTON         CLOUDY    50  47  89 S22G29    29.70R
PARSONS        SUNNY     58  54  86 S14G24    29.79S
WICHITA INTL   CLOUDY    49  48  97 S15       29.72R
WICHITA JABRA  CLOUDY    50  49  96 S17G25    29.72R
WICHITA MCCONL CLOUDY    49  48  97 SW15      29.73R
WINFIELD       CLOUDY    52  51  97 S13       29.76R
$$

KSZ007>012-019>026-033>040-048>060-102>105-211600-
NORTHEAST KANSAS

CITY           SKY/WX    TMP DP  RH WIND       PRES   REMARKS
CONCORDIA      FOG       39  39 100 NE6       29.69S VSB 1/4
EMPORIA        CLOUDY    52  49  89 S22G29    29.72R
LAWRENCE       CLOUDY    52  50  93 E8        29.77R
MANHATTAN      CLOUDY    48  47  96 CALM      29.71R FOG
OLATHE IND     CLOUDY    54  51  90 S10       29.78R
OLATHE EXE     CLOUDY    49  49 100 SE5       29.78R
SALINA         FOG       37  37 100 CALM      29.70R VSB<1/4
TOPEKA BILLARD CLOUDY    51  51 100 SE7       29.75R
TOPEKA FORBES  CLOUDY    54  51  90 S13       29.74R
$$




USA.gov is the U.S. government's official web portal to all federal, state and local government web resources and services.